Simultaneous Nadir Overpasses (SNOs) Predictions

Prediction of SNOs between GOES-17 and METOP-C Satellite Orbit:

Table of predicted SNOs for the next 14.0 days since TLE Epoch: 5/4/2024
Index Date Time (GOES-17) GOES-17 Lat,Lon METOP-C Lat,Lon Distance(km) Time Diff (sec)
1 05/04/2024 16:15:12 -0.01,-104.70 -0.82,-101.18 402.40 80
2 05/06/2024 04:34:12 0.01,-104.70 -0.22,-105.77 121.24 80
3 05/07/2024 04:10:53 0.01,-104.70 0.87,-100.77 448.19 80
4 05/08/2024 16:29:45 -0.00,-104.71 0.16,-105.32 70.26 80
5 05/09/2024 16:11:46 0.00,-104.71 -1.00,-100.34 499.26 80
6 05/11/2024 04:30:47 -0.01,-104.71 -0.04,-104.92 24.52 80
7 05/13/2024 16:29:00 0.00,-104.72 -0.05,-104.49 26.49 80
8 05/15/2024 04:48:00 0.01,-104.72 -0.98,-109.07 497.18 80
9 05/16/2024 04:24:41 0.02,-104.72 0.18,-104.09 72.41 80
10 05/17/2024 16:43:33 -0.02,-104.73 0.87,-108.64 445.55 80
